Location: Bothwell
(42.3833°S, 147.0000°E)
Time: 03:31:34
(UTC+10:00)

XW-2C - Pass Details

Date: 23 April 2024
Orbit: 436 x 449 km, 97.5° (Epoch: 22 May)

Event Time Altitude Azimuth Distance (km) Brightness Sun altitude
Exits shadow 20:24:06 - 217° (SW) 1,772 ? -33.1°
Reaches altitude 10° 20:24:57 10° 229° (SW) 1,641 ? -33.3°
Maximum altitude 20:25:50 11° 244° (WSW) 1,592 ? -33.4°
Drops below altitude 10° 20:26:42 10° 258° (WSW) 1,636 ? -33.6°
Sets 20:30:13 0° 297° (WNW) 2,500 ? -34.2°
